Forside
METAR-TAF:

METAR-TAF

Lufthavne :

Door County Cherryland Airport

Sturgeon Bay, Wisconsin, USA

Breddekreds: 44-51N, længdekreds: 087-25W, højde: 221 m

Aktuelle vejr

Denne rapport blev lavet for 23 minutter siden, kl. 06:56 UTC
Vind 8 kt fra vestsydvest
Temperatur 4°C
Fugtighed 75%
Tryk 1012 hPa
Sigt: 16.1 km
skyfri

METAR: KSUE 290656Z AUTO 24008KT 10SM CLR 04/00 A2987 RMK AO2 SLP117 T00390000

Tid: 01:19 (07:19 UTC)


TAF: fraværende

Vejrobservationer og prognoser fra mere end 4000 lufthavne (METAR og TAF).

De gule og røde prikker repræsenterer de meteorologiske stationer.

Flyt musen over at se navnet på stationen.

Så klik over at se vejr observationer og prognoser.

At skifte det kort: Klik på de grønne knapper med et sort kors for at zoome ind; på den grønne knap med en bindestreg for at zoome ud; eller på de grønne pile for tilstødende kort.


METAR-TAF: